TimeAKDT,TemperatureF,Dew PointF,Humidity,Sea Level PressureIn,VisibilityMPH,Wind Direction,Wind SpeedMPH,Gust SpeedMPH,PrecipitationIn,Events,Conditions,WindDirDegrees,DateUTC
12:53 AM,53.1,48.9,86,29.92,10.0,Calm,Calm,-,N/A,,Clear,0,2013-07-11 08:53:00
1:53 AM,52.0,48.0,86,29.92,10.0,Calm,Calm,-,N/A,,Clear,0,2013-07-11 09:53:00
2:53 AM,55.9,48.0,75,29.92,10.0,NNE,8.1,-,N/A,,Clear,20,2013-07-11 10:53:00
3:53 AM,59.0,46.9,64,29.92,10.0,North,8.1,16.1,N/A,,Clear,10,2013-07-11 11:53:00
4:53 AM,57.0,46.9,69,29.92,10.0,North,8.1,-,N/A,,Clear,10,2013-07-11 12:53:00
5:53 AM,57.0,46.0,67,29.92,10.0,North,12.7,-,N/A,,Clear,10,2013-07-11 13:53:00
6:53 AM,57.0,46.9,69,29.92,10.0,North,12.7,-,N/A,,Clear,10,2013-07-11 14:53:00
7:53 AM,61.0,48.0,62,29.91,10.0,North,10.4,-,N/A,,Clear,10,2013-07-11 15:53:00
8:53 AM,64.9,48.9,56,29.91,10.0,North,9.2,-,N/A,,Clear,10,2013-07-11 16:53:00
9:53 AM,68.0,48.0,49,29.91,10.0,North,9.2,-,N/A,,Clear,10,2013-07-11 17:53:00
10:53 AM,64.0,52.0,65,29.91,10.0,South,5.8,-,N/A,,Clear,170,2013-07-11 18:53:00
11:53 AM,64.9,54.0,68,29.91,10.0,SSE,6.9,-,N/A,,Clear,160,2013-07-11 19:53:00
12:53 PM,64.9,54.0,68,29.91,10.0,South,6.9,-,N/A,,Clear,180,2013-07-11 20:53:00
1:53 PM,66.9,51.1,57,29.91,10.0,South,11.5,17.3,N/A,,Clear,190,2013-07-11 21:53:00
2:53 PM,68.0,51.1,55,29.91,10.0,South,15.0,-,N/A,,Partly Cloudy,190,2013-07-11 22:53:00
3:53 PM,68.0,50.0,52,29.91,10.0,South,12.7,20.7,N/A,,Clear,190,2013-07-11 23:53:00
4:53 PM,68.0,50.0,52,29.92,10.0,South,13.8,19.6,N/A,,Clear,190,2013-07-12 00:53:00
5:53 PM,69.1,50.0,51,29.92,10.0,South,13.8,-,N/A,,Partly Cloudy,190,2013-07-12 01:53:00
6:53 PM,66.9,51.1,57,29.92,10.0,SSW,10.4,-,N/A,,Mostly Cloudy,200,2013-07-12 02:53:00
7:53 PM,66.0,51.1,59,29.92,10.0,SSW,8.1,-,N/A,,Scattered Clouds,200,2013-07-12 03:53:00
8:53 PM,63.0,52.0,67,29.93,10.0,ESE,4.6,-,N/A,,Partly Cloudy,120,2013-07-12 04:53:00
9:53 PM,62.1,51.1,67,29.94,10.0,Calm,Calm,-,N/A,,Clear,0,2013-07-12 05:53:00
10:53 PM,59.0,52.0,78,29.94,10.0,WNW,3.5,-,N/A,,Clear,300,2013-07-12 06:53:00
11:53 PM,57.0,51.1,81,29.94,10.0,Calm,Calm,-,N/A,,Clear,0,2013-07-12 07:53:00